Ephrata, WA
on Monday, February 25, 2013

Monday
Previous Day Next Day
Daily Summary
 ActualAverageRecord
Temperature
Mean Temperature °F 37°F  
Max Temperature 49°F 46°F 62°F (1986)
Min Temperature 30°F 27°F -1°F (1993)
Degree Days
Heating Degree Days 25 28  
Month to date heating degree days 718 781  
Since 1 July heating degree days 4154 4489  
Cooling Degree Days 0 0  
Month to date cooling degree days 0 0  
Year to date cooling degree days 0 0  
Moisture
Dew Point 27°F   
Average Humidity 66    
Maximum Humidity 100    
Minimum Humidity 31    
Precipitation
Precipitation T in 0.03 in 0.49 in (1981)
Month to date precipitation T 0.66  
Year to date precipitation 0.19 1.57  
Wind
Wind Speed 12 mph   
Max Wind Speed 29 mph   
Max Gust Speed 36 mph   
Visibility 10 miles   
Events Rain , Snow   

Key: T is trace of precipitation, MM is missing value
Source: NWS Daily Summary
Time(PST)TemperatureDew PointHumidity Pressure Visibility Wind DirectionWind SpeedGust SpeedPrecipitationEvents Conditions
12:53 AM 30.0°F 27.0°F 88% 30.01 in 10.0 miles North 5.8 mph - N/A   Clear
1:53 AM 32.0°F 28.0°F 85% 29.99 in 10.0 miles North 3.5 mph - N/A   Mostly Cloudy
2:53 AM 32.0°F 28.9°F 88% 29.95 in 4.0 miles NNE 4.6 mph - 0.00 in Snow Light Snow
3:53 AM 32.0°F 30.0°F 92% 29.93 in 10.0 miles North 5.8 mph - 0.00 in   Overcast
4:03 AM 32.0°F 30.2°F 93% 29.90 in 10.0 miles North 3.5 mph - N/A   Overcast
4:53 AM 32.0°F 30.0°F 92% 29.93 in 10.0 miles NNW 3.5 mph - N/A   Overcast
5:20 AM 32.0°F 30.2°F 93% 29.89 in 8.0 miles Calm Calm - 0.00 in Rain Light Freezing Rain
5:45 AM 32.0°F 30.2°F 93% 29.87 in 10.0 miles Calm Calm - 0.00 in Rain Light Freezing Rain
5:53 AM 32.0°F 30.0°F 92% 29.91 in 10.0 miles Calm Calm - 0.00 in   Mostly Cloudy
6:53 AM 30.9°F 30.0°F 96% 29.91 in 10.0 miles SSW 5.8 mph - N/A   Partly Cloudy
7:53 AM 34.0°F 30.9°F 89% 29.92 in 10.0 miles SSW 8.1 mph - N/A   Clear
8:53 AM 37.9°F 32.0°F 79% 29.91 in 10.0 miles SW 20.7 mph 24.2 mph N/A   Clear
9:53 AM 44.1°F 30.0°F 58% 29.91 in 10.0 miles SW 23.0 mph 28.8 mph N/A   Clear
10:53 AM 44.1°F 30.9°F 60% 29.91 in 10.0 miles SW 21.9 mph 26.5 mph N/A   Clear
11:53 AM 46.9°F 27.0°F 46% 29.92 in 10.0 miles SW 26.5 mph 32.2 mph N/A   Clear
12:53 PM 48.9°F 26.1°F 41% 29.92 in 10.0 miles West 12.7 mph - N/A   Scattered Clouds
1:53 PM 48.9°F 19.9°F 32% 29.94 in 10.0 miles West 19.6 mph 26.5 mph N/A   Clear
2:53 PM 48.0°F 21.0°F 34% 29.96 in 10.0 miles WSW 13.8 mph 21.9 mph N/A   Scattered Clouds
3:53 PM 48.0°F 21.0°F 34% 29.98 in 10.0 miles West 9.2 mph - N/A   Scattered Clouds
4:53 PM 46.0°F 24.1°F 42% 30.01 in 10.0 miles NW 8.1 mph - N/A   Clear
5:53 PM 42.1°F 24.1°F 49% 30.03 in 10.0 miles NW 10.4 mph - N/A   Clear
6:53 PM 39.9°F 24.1°F 53% 30.06 in 10.0 miles NW 13.8 mph - N/A   Clear
7:53 PM 39.0°F 24.1°F 55% 30.08 in 10.0 miles WNW 12.7 mph - N/A   Clear
8:53 PM 37.0°F 21.9°F 54% 30.10 in 10.0 miles WSW 11.5 mph - N/A   Clear
9:53 PM 37.9°F 21.9°F 53% 30.10 in 10.0 miles West 12.7 mph - N/A   Clear
10:53 PM 37.0°F 21.9°F 54% 30.12 in 10.0 miles WNW 16.1 mph - N/A   Clear
11:53 PM 37.0°F 21.9°F 54% 30.14 in 10.0 miles WNW 17.3 mph - N/A   Clear
Moon Phase
Feb. 25 Feb. 25 Mar. 04 Mar. 11 Mar. 19
Sunrise:06:45 AM (PST) Moon Rise:06:01 PM (PST)
Sunset:05:37 PM (PST) Moon Set:06:15 AM (PST)

Copyright © 2014 The Weather Underground, Inc.